Current weather by "City, St" or "zip code"  
 
Advertise Here

Current Conditions: Bowling Green, Bowling Green-Warren County Regional Airport, KY

Fair


43.0 F

Last Updated on Jan 20 2021, 12:53 pm CST
Humidity: 43%
Wind Speed: W 11.5 mph
Barometer 30.27 in
Dewpoint: 21.9 F
Visibility: 10.00 mi
Precip: --
Heat Index: NA
Wind Chill: 37 F
Current conditions at:

Bowling Green, Bowling Green-Warren County Regional Airport, KY (KBWG)

Lat: 36.96444 Lon: 86.41944

Local Radar Image active severe weather and emergency alerts image image weather storm and storm spotter reports image weather observation monitoring service image
Local
Radar
Active
Alerts
Storm Reports Obs
Monitoring

Sign-up For Email & Text Message Weather Alert Notification Services


Advertise Here

Observation History for Bowling Green, Bowling Green-Warren County Regional Airport, KY


Time Wind
(mph)
Vis
(mi)
Weather Precip (in) Temperature (F) Relative
Humidity
Wind
Chill
(F)
Heat
Index
(F)
Pressure
Air Dwpt altimeter
(in)
sea level
(mb)
Rmks
12:53 pm CST W 11.5 10.00 Fair -- 43.0 21.9 43% 37 NA 30.27 1025.4
11:53 am CST 10.00 Fair -- 41.0 23.0 49% NA NA 30.30 1026.4
10:53 am CST W 6.9 10.00 Fair -- 39.0 21.9 50% 34 NA 30.36 1028.3
9:53 am CST N 0.0 10.00 Fair -- 36.0 25.0 64% NA NA 30.39 1029.4
8:53 am CST N 5.8 10.00 A Few Clouds -- 35.0 26.1 70% 30 NA 30.38 1029.0
7:53 am CST W 3.5 10.00 A Few Clouds -- 34.0 26.1 73% NA NA 30.36 1028.3
6:53 am CST W 4.6 10.00 Fair -- 32.0 24.1 73% 27 NA 30.35 1027.9
5:53 am CST W 4.6 10.00 Fair -- 33.0 25.0 72% 29 NA 30.33 1027.3
4:53 am CST W 5.8 10.00 Fair -- 33.0 25.0 72% 28 NA 30.32 1026.9
3:53 am CST W 5.8 10.00 Fair -- 35.0 25.0 67% 30 NA 30.32 1026.8
2:53 am CST W 5.8 10.00 Fair -- 36.0 26.1 67% 31 NA 30.33 1027.1
1:53 am CST W 5.8 10.00 Fair -- 37.0 26.1 65% 32 NA 30.32 1026.8
12:53 am CST W 9.2 10.00 Fair -- 39.0 26.1 60% 33 NA 30.30 1026.3
11:53 pm CST NW 9.2 10.00 Fair -- 41.0 27.0 57% 35 NA 30.30 1026.2
10:53 pm CST W 8.1 10.00 Fair -- 43.0 30.0 60% 38 NA 30.30 1026.2
9:53 pm CST SW 3.5 10.00 Fair -- 41.0 32.0 70% NA NA 30.29 1026.0
8:53 pm CST W 4.6 10.00 Fair -- 40.0 32.0 73% 37 NA 30.29 1025.8
7:53 pm CST W 3.5 10.00 Fair -- 42.0 32.0 68% NA NA 30.27 1025.3
6:53 pm CST NW 3.5 10.00 Fair -- 45.0 32.0 61% NA NA 30.27 1025.1
5:53 pm CST W 3.5 10.00 Fair -- 46.0 32.0 58% NA NA 30.26 1024.9
4:53 pm CST 4.6 10.00 Fair -- 49.0 30.9 50% 47 NA 30.24 1024.2
3:53 pm CST 5.8 10.00 Fair -- 53.0 30.9 43% 51 NA 30.23 1023.9
2:53 pm CST W 9.2 10.00 Fair -- 54.0 30.0 40% 51 NA 30.23 1023.6
1:53 pm CST 5.8 10.00 Fair -- 53.0 30.0 41% 51 NA 30.23 1023.6

Regional Weather Observation


Muhlenberg County Airport, KY (KM21)

Fair
39.0 F

Hancock County Airport-Ron Lewis Field, KY (KKY8)

Fair
37.0 F

Portland Municipal Airport, TN (K1M5)

Fair
41.0 F

Springfield Robertson County Airport, TN (KM91)

Fair
41.0 F

Glasgow, Glasgow Municipal Airport, KY (KGLW)

Fair
40.0 F

Madisonville Municipal Airport, KY (K2I0)

Fair
40.0 F